TimePST,TemperatureF,Dew PointF,Humidity,Sea Level PressureIn,VisibilityMPH,Wind Direction,Wind SpeedMPH,Gust SpeedMPH,PrecipitationIn,Events,Conditions,WindDirDegrees,DateUTC
12:53 AM,43.0,39.9,89,30.50,10.0,North,3.5,-,N/A,,Clear,360,2013-02-15 08:53:00
1:53 AM,45.0,41.0,86,30.49,10.0,North,6.9,-,N/A,,Mostly Cloudy,360,2013-02-15 09:53:00
2:53 AM,46.9,42.1,83,30.47,10.0,North,9.2,-,N/A,,Overcast,360,2013-02-15 10:53:00
3:53 AM,46.0,41.0,83,30.45,10.0,NNE,9.2,-,N/A,,Overcast,20,2013-02-15 11:53:00
4:53 AM,46.0,41.0,83,30.43,10.0,North,10.4,-,N/A,,Overcast,350,2013-02-15 12:53:00
5:09 AM,44.6,41.0,87,30.43,10.0,North,11.5,-,N/A,,Overcast,360,2013-02-15 13:09:00
5:53 AM,45.0,39.9,82,30.43,10.0,North,5.8,-,N/A,,Overcast,10,2013-02-15 13:53:00
6:53 AM,45.0,39.9,82,30.41,10.0,North,5.8,-,N/A,,Overcast,350,2013-02-15 14:53:00
7:39 AM,44.6,39.2,81,30.41,10.0,North,3.5,-,N/A,,Overcast,350,2013-02-15 15:39:00
7:53 AM,45.0,41.0,86,30.41,10.0,NNW,4.6,-,N/A,,Overcast,340,2013-02-15 15:53:00
8:41 AM,44.6,41.0,87,30.41,10.0,WNW,3.5,-,N/A,,Scattered Clouds,300,2013-02-15 16:41:00
8:53 AM,46.0,41.0,83,30.40,10.0,NNW,3.5,-,N/A,,Clear,330,2013-02-15 16:53:00
9:53 AM,50.0,41.0,71,30.39,10.0,North,4.6,-,N/A,,Clear,360,2013-02-15 17:53:00
10:53 AM,52.0,42.1,69,30.37,10.0,Calm,Calm,-,N/A,,Partly Cloudy,0,2013-02-15 18:53:00
11:53 AM,55.0,42.1,62,30.35,10.0,NE,3.5,-,N/A,,Clear,50,2013-02-15 19:53:00
12:53 PM,57.0,42.1,57,30.31,10.0,North,3.5,-,N/A,,Clear,360,2013-02-15 20:53:00
1:53 PM,60.1,43.0,53,30.27,10.0,Calm,Calm,-,N/A,,Clear,0,2013-02-15 21:53:00
2:53 PM,61.0,43.0,52,30.25,10.0,NNE,4.6,-,N/A,,Clear,30,2013-02-15 22:53:00
3:53 PM,62.1,43.0,50,30.23,10.0,Calm,Calm,-,N/A,,Clear,0,2013-02-15 23:53:00
4:53 PM,61.0,45.0,56,30.22,10.0,Calm,Calm,-,N/A,,Clear,0,2013-02-16 00:53:00
5:53 PM,53.1,43.0,69,30.21,10.0,SSW,5.8,-,N/A,,Clear,210,2013-02-16 01:53:00
6:53 PM,48.9,42.1,77,30.22,10.0,WSW,4.6,-,N/A,,Clear,250,2013-02-16 02:53:00
7:53 PM,48.0,42.1,80,30.22,10.0,Calm,Calm,-,N/A,,Clear,0,2013-02-16 03:53:00
8:53 PM,45.0,41.0,86,30.24,10.0,West,5.8,-,N/A,,Clear,280,2013-02-16 04:53:00
9:53 PM,43.0,39.9,89,30.25,9.0,Calm,Calm,-,N/A,,Clear,0,2013-02-16 05:53:00
10:53 PM,43.0,39.9,89,30.25,6.0,NW,3.5,-,N/A,,Clear,320,2013-02-16 06:53:00
11:53 PM,39.9,37.9,93,30.24,3.0,Calm,Calm,-,N/A,,Clear,0,2013-02-16 07:53:00
11:58 PM,39.2,37.4,93,30.24,1.8,Calm,Calm,-,N/A,,Clear,0,2013-02-16 07:58:00